Home > Weather > Salta > Past weeks

Flag for Argentina Weather for the Past 2 Weeks in Salta, Salta, Argentina

Now
72 °F

Passing clouds.


Feels Like: 69 °F
Forecast: 65 / 81 °F
Wind: 2 mph from West

Location: Salta Aerodrome

Current Time: Feb 8, 2016 at 2:00:18 AM

Latest Report: Feb 8, 2016 at 1:00 AM


Visibility: N/A

Pressure: 29.92 "Hg (26.09 "Hg at 1184m altitude)

Humidity: 88%

Dew point: 68 °F

Location of SaltaLocation

Historic Weather in Salta — Graph

°F

Salta Temperature Yesterday

Maximum temperature yesterday: 81 °F (at 2:00 PM)
Minimum temperature yesterday: 68 °F (at 5:00 AM)
Average temperature yesterday: 74 °F

High & Low Weather Summary for the Past Weeks

 TemperatureHumidityPressure
High88 °F (Jan 24, 3:00 PM)100% (Jan 27, 5:00 AM)30.27 "Hg (Jan 27, 5:00 AM)
Low57 °F (Jan 27, 5:00 AM)35% (Jan 24, 5:00 PM)29.59 "Hg (Jan 24, 5:00 PM)
Average70 °F79%30.01 "Hg
* Reported Midnight between Jan 23 and Jan 24 — Midnight between Feb 7 and Feb 8, Salta, Weather by CustomWeather, © 2016

Note: Actual official high and low records may vary slightly from our data, if they occured in-between our weather recording intervals... More about our weather records

Advertising

Salta Weather History for the Previous 24 Hours

 ConditionsComfort  
Time TempWeatherWind HumidityBarometerVisibility
12:00 AM
Mon, Feb 8
73 °FPassing clouds.5 mph89%29.92 "HgN/A
11:00 PM
Sun, Feb 7
72 °FPassing clouds.2 mph94%29.89 "HgN/A
10:00 PM72 °FPartly cloudy.2 mph94%29.89 "HgN/A
9:00 PM73 °FThunderstorms. Passing clouds.7 mph89%29.89 "HgN/A
8:00 PM75 °FThunderstorms. Partly cloudy.2 mph83%29.89 "HgN/A
7:00 PM75 °FScattered clouds.8 mph83%29.83 "HgN/A
6:00 PM77 °FBroken clouds.7 mph74%29.83 "HgN/A
5:00 PM79 °FBroken clouds.6 mph70%29.83 "HgN/A
4:00 PM79 °FScattered clouds.13 mph65%29.86 "HgN/A
3:00 PM81 °FPartly sunny.12 mph62%29.89 "HgN/A
2:00 PM81 °FPartly sunny.9 mph66%29.92 "HgN/A
1:00 PM79 °FScattered clouds.9 mph70%29.92 "HgN/A
12:00 PM77 °FScattered clouds.6 mph74%29.95 "HgN/A
11:00 AM75 °FBroken clouds.7 mph78%29.98 "HgN/A
10:00 AM73 °FScattered clouds.2 mph83%29.98 "HgN/A
9:00 AM72 °FScattered clouds.6 mph88%29.98 "HgN/A
8:00 AM68 °FScattered clouds.No wind100%29.98 "Hg5 mi
7:00 AM68 °FRain. Fog.8 mph100%29.98 "Hg2 mi
6:00 AM68 °FPassing clouds.6 mph100%29.98 "HgN/A
5:00 AM68 °FPassing clouds.6 mph100%29.98 "HgN/A
4:00 AM70 °FThunderstorms. Mostly cloudy.3 mph94%30.01 "Hg2 mi
3:00 AM70 °FPassing clouds.No wind94%30.01 "Hg5 mi
2:00 AM70 °FPassing clouds.2 mph94%30.04 "HgN/A
Weather by CustomWeather, © 2016

See weather overviewHow to use our weather pages